Location: Frizzleburg
(41.0764°N, 80.4548°W)
Time: 01:10:09
(UTC+00:00)

DMSP B5D1-3 - Pass Details

Date: 17 November 2019
Orbit: 768 x 780 km, 98.5° (Epoch: 06 December)

Event Time Altitude Azimuth Distance (km) Brightness Sun altitude
Exits shadow 00:10:37 33° 16° (NNE) 1,305 5.5 -24.1°
Maximum altitude 00:13:03 87° 103° (ESE) 787 4.4 -24.6°
Drops below altitude 10° 00:18:11 10° 194° (SSW) 2,323 7.2 -25.6°
Sets 00:20:29 0° 194° (SSW) 3,245 8.0 -26.0°
